Dewpoint
68 69 69 69 69 68 68 70 69 69 67 66 65 65 64 65 63 64 66 65 65 64 65 68 71 68 68 70 66 69 72 71 71 72 74 75 75 76 75 77 76 75 76 75 72 74 76 74 75 75 76 73 73 70 68 68 69 70 71 74 72 75 76 75 73 73 75 77 74 71 69 71 71 75 71 68 69 71 70 70 73 71 67 66 72
68 71 70 68 66 66 67 68 69 69 67 66 66 65 64 65 66 66 63 65 66 64 66 63 66 67 67 68 70 67 72 73 68 69 72 74 73 70 70 75 77 77 77 77 76 73 74 75 74 72 75 73 71 68 67 66 65 64 71 69 76 74 76 76 74 74 71 76 75 74 73 71 69 71 74 71 71 72 68 67 64 64 63 71 73
67 70 69 69 68 67 67 68 68 68 67 66 65 65 65 65 66 64 63 63 65 65 64 64 69 69 68 69 72 70 73 70 69 70 71 73 72 70 69 71 72 72 73 75 74 74 72 73 71 71 69 69 70 68 67 67 67 71 70 69 70 70 74 77 77 74 73 74 76 72 75 76 75 74 72 72 74 72 72 69 66 63 64 64 69
73 73 72 70 66 67 68 69 68 67 66 65 64 65 65 65 66 65 64 64 64 66 66 66 69 72 69 70 71 72 71 69 68 68 71 72 72 74 74 74 71 71 71 71 71 72 72 74 72 71 71 71 73 72 71 69 70 73 71 73 75 73 75 77 77 76 77 73 77 76 75 76 75 74 72 73 72 73 72 72 70 68 68 68 69
74 71 72 73 70 71 71 70 69 71 70 67 65 63 63 63 65 66 66 65 65 65 69 70 71 72 67 68 69 70 70 70 70 68 69 69 71 70 71 73 73 73 72 73 72 74 74 72 72 73 73 73 72 70 68 70 70 70 70 73 76 74 74 77 76 77 77 75 76 77 77 75 77 75 75 73 74 74 75 75 73 73 73 70 70
73 73 73 74 73 73 73 72 72 71 72 73 70 67 66 61 62 63 65 67 68 65 67 68 68 69 70 69 69 70 72 72 73 71 68 68 69 69 70 72 71 73 73 71 72 72 70 73 73 73 72 71 71 72 73 73 71 72 72 72 75 75 75 74 77 77 75 75 75 74 77 74 76 78 77 77 73 72 73 74 76 75 73 71 71
74 75 75 73 73 72 72 72 73 73 73 71 72 73 72 70 64 61 63 65 65 65 65 67 70 69 71 69 68 71 72 70 72 73 71 71 70 70 68 70 72 73 72 72 72 71 71 71 73 73 73 73 72 72 73 72 72 74 75 74 74 74 72 72 74 75 75 73 73 74 74 75 75 74 78 77 76 75 74 73 73 74 73 72 73
74 75 75 75 74 74 74 75 72 73 74 74 72 70 70 70 71 71 66 63 62 63 64 64 64 70 70 70 71 74 73 71 74 74 72 70 70 69 70 69 69 71 71 72 70 70 70 71 70 71 72 73 74 73 73 75 76 74 73 77 75 76 76 74 75 75 75 73 74 73 76 75 76 76 77 77 75 77 74 73 72 71 71 74 74
74 74 74 74 74 74 75 75 75 74 74 74 74 73 72 73 73 72 71 71 64 64 66 65 67 66 70 72 72 71 70 69 69 71 74 72 72 70 69 68 68 69 70 69 70 70 70 70 69 71 75 75 73 76 74 75 75 76 77 77 76 75 76 73 74 75 75 74 73 74 73 74 74 75 76 75 75 75 75 73 72 73 74 72 73
72 72 73 74 74 75 74 74 74 75 75 75 75 74 73 73 73 74 74 74 74 74 73 71 68 67 69 70 70 69 70 73 74 72 73 75 75 73 71 73 72 73 75 74 71 71 71 71 73 74 74 74 74 75 75 76 75 74 76 75 75 75 75 75 75 75 75 73 72 71 70 70 71 75 73 75 77 75 74 73 72 74 73 72 73
72 72 72 73 73 74 74 74 74 74 74 74 74 74 74 75 75 74 73 73 74 76 72 70 69 68 66 66 67 73 72 73 73 67 69 73 74 75 73 74 75 73 73 73 74 73 72 71 72 72 74 74 74 77 75 75 74 75 75 76 76 75 74 74 74 76 75 73 72 71 71 70 71 75 74 74 75 74 74 74 74 73 72 71 70
72 71 72 73 73 73 73 73 73 73 73 73 73 73 73 73 74 74 74 73 75 73 72 71 73 70 69 68 68 70 71 73 67 68 69 69 73 75 73 73 73 73 72 71 72 72 73 72 71 70 71 73 73 75 75 74 74 75 75 75 75 76 76 76 75 74 74 74 72 71 71 71 72 72 71 75 75 75 74 74 74 73 72 72 72
72 72 71 71 71 72 72 72 72 72 72 72 73 73 73 73 71 71 71 72 72 72 73 72 72 71 70 72 70 70 70 70 66 68 68 68 70 74 72 73 73 74 74 72 72 74 75 75 73 72 73 74 76 75 76 76 76 76 76 76 76 76 72 72 74 75 74 75 73 71 72 74 73 72 74 75 75 73 75 74 74 74 72 72 73
70 70 71 70 70 72 72 72 72 72 72 72 72 72 72 72 72 73 73 73 73 73 74 74 74 75 75 74 74 72 71 71 66 67 67 68 68 71 72 71 72 74 73 71 70 72 74 75 75 75 74 76 77 76 76 76 76 76 76 76 76 76 76 74 73 73 75 74 74 73 73 75 74 74 76 75 74 74 75 74 74 73 73 72 73
68 69 69 69 70 72 72 72 72 71 71 72 72 72 72 72 72 72 73 73 74 73 72 73 73 73 73 72 72 71 70 63 65 66 65 65 68 71 73 72 73 73 73 74 74 74 75 75 75 75 76 76 77 76 75 75 76 75 75 75 74 74 74 74 74 73 74 73 73 73 74 74 74 76 76 76 75 76 76 75 75 74 74 78 76
67 68 67 68 68 69 70 70 71 70 70 71 71 71 71 72 71 72 72 73 74 74 73 73 73 73 74 73 73 70 66 60 61 62 62 64 67 71 73 74 73 74 74 75 75 76 76 75 75 76 75 75 76 73 74 75 73 73 74 74 75 75 74 75 71 71 76 76 75 74 73 73 71 75 76 75 76 77 77 76 75 75 74 75 73
65 66 66 67 67 68 68 68 69 68 69 69 69 69 69 70 71 71 71 72 71 72 72 72 73 73 73 73 72 70 67 61 58 58 59 61 67 72 73 73 74 73 74 75 75 75 74 74 73 74 72 72 68 63 68 73 73 73 73 73 73 73 73 73 70 68 67 67 66 66 66 66 66 65 64 66 71 74 75 73 73 74 73 72 70
64 65 66 67 67 67 67 67 67 67 67 67 68 69 70 71 71 72 71 71 71 71 72 72 72 73 73 73 70 70 65 60 56 56 57 59 67 72 73 75 73 73 72 72 74 74 73 73 72 72 72 72 61 61 63 71 72 72 72 72 72 72 72 72 72 73 67 66 66 66 66 66 67 67 68 67 66 70 72 70 72 72 72 71 69
65 65 65 66 66 66 66 67 67 66 67 67 68 68 68 69 70 71 71 71 71 70 71 71 72 72 73 72 72 68 64 60 54 54 55 56 64 71 73 73 72 72 73 73 74 74 72 71 73 70 68 61 57 58 61 67 70 71 71 71 71 70 71 72 74 73 72 72 72 71 72 71 72 72 72 72 72 74 72 71 71 73 71 70 70
62 64 64 65 66 66 65 65 66 66 67 68 69 69 69 70 70 70 70 70 68 67 66 65 65 66 66 67 66 64 62 60 57 54 54 55 58 68 71 71 70 70 71 72 72 73 73 72 69 60 58 57 55 55 57 59 65 67 68 69 70 70 71 72 73 73 72 71 72 73 73 73 73 73 73 72 72 74 73 72 73 72 70 70 70
62 64 65 65 65 66 65 65 65 66 67 67 68 68 69 69 69 69 70 70 68 65 64 65 64 63 63 63 63 63 63 61 59 54 53 53 55 61 63 61 60 64 67 70 71 72 71 72 67 61 56 56 55 54 53 56 60 64 66 66 67 67 65 66 69 72 72 72 72 72 72 72 71 72 73 73 73 70 68 67 66 65 68 70 67
61 62 63 64 65 65 65 65 65 65 66 67 67 67 68 68 68 68 68 68 67 66 65 64 63 62 61 61 62 62 62 61 61 56 53 52 53 55 58 58 59 63 63 65 66 68 71 71 65 61 56 54 53 51 51 53 56 63 67 60 58 59 64 66 66 67 69 72 72 72 72 71 71 71 71 71 71 71 67 65 65 64 62 63 65
59 59 61 61 64 64 65 65 64 65 66 66 65 65 66 67 67 67 66 66 65 64 64 63 62 62 61 61 61 61 61 60 58 60 56 53 53 54 54 57 56 61 61 62 63 63 64 64 63 63 55 52 50 51 52 52 58 64 57 55 57 58 63 65 66 67 68 69 71 71 71 71 71 71 70 68 69 68 67 63 61 62 64 66 65
61 59 58 59 60 62 62 63 63 64 65 65 65 65 65 65 65 66 65 65 64 64 64 63 62 61 61 60 60 61 61 61 60 59 60 57 54 53 54 54 56 59 60 60 59 60 62 63 63 55 52 50 50 52 53 55 61 55 53 56 58 62 64 65 66 67 67 68 69 70 70 71 71 69 68 67 65 65 65 64 64 64 63 61 61
57 54 55 54 55 55 59 62 62 63 62 62 62 63 63 63 64 64 64 64 64 63 62 62 61 61 61 60 60 60 60 60 61 61 60 60 57 55 55 55 57 57 62 58 59 61 60 55 53 53 54 53 53 54 57 62 61 59 58 60 67 66 66 66 67 67 68 68 69 70 71 69 65 64 64 64 64 63 63 63 63 62 63 63 64
61 60 56 55 51 48 49 49 51 55 58 59 59 58 57 57 59 60 61 63 63 63 62 61 61 60 60 60 60 60 61 61 61 61 61 61 60 58 57 58 61 62 62 63 63 59 57 56 56 56 58 60 65 66 66 67 64 64 64 66 66 68 68 67 67 67 67 68 67 64 62 62 63 63 63 64 63 63 64 64 64 64 63 64 65
60 59 59 53 54 54 50 48 49 50 51 52 55 58 58 56 55 56 56 57 60 60 59 58 58 57 59 59 60 60 60 60 60 59 59 58 59 58 59 59 59 59 60 60 59 59 61 61 61 59 58 59 60 61 61 64 66 64 64 64 66 67 67 67 66 67 66 64 63 63 63 63 64 64 63 63 64 64 66 64 62 63 65 65 63
56 56 53 53 54 53 53 54 53 50 52 53 53 54 54 54 53 54 53 53 55 57 59 58 57 55 55 57 59 59 59 59 57 55 56 56 55 55 56 57 57 57 57 60 58 58 60 61 62 66 68 68 68 67 66 65 64 63 63 64 64 65 65 65 64 64 63 63 62 62 62 62 61 63 64 62 62 62 63 63 61 62 64 63 60
59 55 55 58 59 59 56 56 52 52 53 56 56 56 56 55 56 56 54 52 52 53 56 57 59 58 54 56 56 56 56 56 56 50 53 49 50 52 54 54 54 54 57 53 54 57 59 61 63 66 68 68 67 65 64 63 62 62 62 63 63 63 64 63 62 62 62 62 61 62 63 64 62 62 62 61 61 61 61 62 63 64 62 62 60
56 51 53 53 53 52 54 49 54 56 51 52 54 55 53 46 50 57 55 52 48 46 48 56 55 57 59 58 57 54 54 55 49 44 42 41 42 43 44 43 42 47 49 49 51 56 59 62 63 62 62 63 61 61 62 61 60 60 61 60 61 61 62 62 62 63 63 63 62 61 61 60 60 60 60 60 61 62 62 62 64 64 63 59 54
56 52 55 52 54 56 52 54 56 60 59 55 55 55 54 55 42 44 51 52 46 41 42 44 47 48 57 58 56 51 51 48 43 41 41 42 41 41 41 42 42 43 45 52 58 59 61 61 61 61 61 60 60 60 61 61 60 60 59 60 60 60 60 60 60 61 61 61 61 61 60 60 59 59 58 59 60 62 63 64 64 59 60 58 54
58 53 53 55 61 60 54 58 58 58 60 61 63 60 57 57 57 44 43 46 46 42 42 42 43 44 45 50 58 58 54 48 42 42 42 42 42 42 42 42 43 44 46 47 62 60 59 59 59 59 59 58 59 59 59 59 60 60 59 59 59 60 60 60 60 59 60 60 60 60 61 61 61 61 61 61 62 62 61 60 58 57 56 55 56
52 53 53 57 59 59 56 59 59 58 57 58 62 61 59 56 54 55 55 44 44 43 43 42 41 42 42 40 42 47 47 44 42 42 42 42 42 42 42 43 46 44 52 59 59 58 58 58 57 57 57 57 57 57 58 58 59 59 58 58 57 58 58 58 58 58 58 58 58 58 59 59 60 61 61 62 61 59 61 61 60 58 58 57 55
57 57 57 58 60 60 59 58 58 59 60 61 60 58 58 58 56 57 55 54 56 52 43 40 42 41 40 40 43 43 42 43 43 43 42 43 42 42 43 52 46 44 51 62 60 58 57 56 56 56 56 57 56 56 57 57 57 57 56 55 55 56 57 57 56 56 56 55 55 56 55 55 56 57 56 53 53 52 51 51 50 50 49 48 47
58 58 57 57 60 58 60 59 58 60 60 60 59 57 57 58 59 59 58 56 56 55 54 55 48 40 54 48 44 40 40 43 44 42 42 43 43 42 47 59 62 61 61 57 58 56 56 56 56 56 55 55 55 55 54 55 54 54 55 55 54 54 54 53 53 53 54 53 53 53 53 53 53 53 51 51 50 49 50 50 50 50 49 49 48
53 53 59 59 57 58 58 59 59 60 61 59 56 54 57 56 55 57 58 58 58 58 56 57 56 51 45 46 46 44 42 43 43 42 41 42 42 47 58 58 56 55 56 57 56 57 56 56 55 55 55 54 54 53 53 52 52 52 52 52 52 52 51 51 52 52 52 51 51 52 50 50 50 50 50 50 50 49 48 49 48 49 49 49 50
47 49 52 56 57 55 55 58 60 60 57 56 57 59 57 57 57 54 59 60 62 58 58 58 57 55 53 57 57 47 42 40 40 40 41 42 42 57 54 55 56 55 55 54 55 55 55 55 55 55 54 54 53 52 52 52 52 52 52 51 51 50 49 50 50 50 49 48 49 49 49 48 49 49 49 49 49 48 48 48 49 49 48 48 48
52 54 56 56 57 58 58 59 54 56 59 58 62 61 59 59 58 56 56 59 55 57 59 57 58 57 58 62 62 58 57 46 44 50 50 50 52 54 55 54 55 55 54 55 56 56 55 55 54 54 54 53 53 52 52 52 51 50 50 51 51 50 49 49 49 49 49 47 46 48 47 47 47 47 48 48 47 47 48 48 46 47 47 48 48
50 60 59 58 56 56 54 54 54 53 54 54 52 54 54 54 53 55 57 56 59 58 58 57 56 56 59 61 61 60 59 58 57 56 56 54 56 53 54 53 53 54 54 54 54 54 54 54 54 54 54 53 53 53 52 51 51 50 51 49 48 48 48 47 48 48 46 47 47 47 47 47 46 47 47 46 45 45 46 45 45 45 45 45 45
50 50 55 56 51 50 51 51 51 51 51 50 49 51 52 54 52 53 53 52 54 56 54 57 56 57 57 58 54 54 55 54 53 54 54 53 53 53 53 52 52 52 53 53 52 52 52 52 56 54 53 52 52 52 52 52 51 50 50 48 47 47 47 47 46 46 46 47 47 47 47 47 46 46 49 50 47 45 46 45 45 46 47 45 46
50 50 52 56 53 50 50 50 51 51 51 51 50 50 50 52 52 52 51 51 53 52 53 56 56 55 53 51 43 49 54 53 54 54 53 54 54 53 53 52 51 50 50 51 51 52 51 50 50 50 50 50 50 51 51 51 50 50 49 49 48 48 46 47 47 48 45 45 46 46 49 50 48 47 45 45 45 46 48 48 45 45 49 47 48
50 51 50 50 52 49 48 47 49 54 55 54 54 51 51 52 52 52 52 53 52 52 51 52 55 54 49 45 43 43 52 52 52 54 54 51 53 53 54 54 53 54 49 49 52 52 53 53 51 50 50 49 48 48 48 47 48 50 48 48 47 46 46 45 45 46 45 46 45 45 48 48 49 48 46 43 47 46 49 47 45 45 46 46 46
53 51 50 51 49 48 47 47 51 50 50 50 51 50 54 54 52 53 52 53 51 51 52 54 54 54 53 48 52 47 54 52 51 54 52 52 55 56 56 51 50 53 54 51 50 53 51 48 49 48 48 48 49 47 45 44 45 44 44 45 45 45 44 44 43 43 43 43 44 46 45 45 45 44 47 48 46 46 46 46 44 45 46 46 47
50 48 49 47 48 48 49 47 45 49 49 49 50 51 50 51 50 53 51 50 51 49 49 48 50 55 53 52 52 53 53 51 54 51 53 52 55 50 48 49 50 50 49 49 48 49 48 48 47 48 50 47 47 47 44 43 43 43 43 43 43 43 42 42 42 41 41 41 42 42 43 44 45 46 44 43 43 42 46 45 45 45 42 43 46
48 47 46 46 47 49 49 54 49 49 49 48 49 50 50 49 48 48 48 48 52 49 48 48 49 49 52 53 52 51 52 53 53 53 54 52 52 49 47 49 49 51 48 48 48 49 48 47 47 47 47 46 47 46 44 44 44 43 41 40 40 39 40 40 42 42 41 42 40 41 40 41 44 43 42 42 42 44 42 43 43 41 44 43 43
48 47 45 44 43 44 45 47 50 48 47 45 46 46 47 47 49 48 47 48 49 50 49 48 48 48 56 55 53 54 54 54 53 49 50 48 48 48 48 48 49 48 47 47 48 48 47 47 46 45 45 46 45 45 44 44 44 43 41 40 39 38 38 39 41 42 41 42 40 40 39 40 41 45 43 46 45 45 44 43 46 44 42 43 43
48 47 45 45 43 45 46 49 46 44 45 43 43 43 44 46 47 49 49 49 49 50 49 49 48 48 51 56 56 57 55 56 53 51 51 52 53 50 48 48 46 46 47 48 51 46 47 46 46 46 45 45 45 45 44 43 42 41 40 39 39 38 39 40 41 41 40 41 41 42 42 40 40 41 44 44 42 41 42 41 41 43 44 45 44
45 44 43 44 43 43 43 45 45 46 44 45 45 46 45 45 46 48 47 48 48 48 48 49 52 53 53 52 54 53 51 51 51 50 49 49 47 48 48 48 46 45 47 47 46 45 45 45 46 46 45 46 45 43 44 44 44 41 39 39 40 40 41 41 41 40 39 40 41 42 42 40 39 40 39 40 41 41 41 41 41 40 41 41 41
44 43 42 42 42 42 44 41 44 43 44 44 45 45 46 45 46 47 47 48 48 49 51 52 52 53 55 57 55 53 51 50 50 48 47 48 49 48 47 47 47 46 45 44 45 46 47 45 46 45 44 45 46 44 42 42 41 40 39 39 40 40 38 38 40 40 39 40 39 39 41 41 40 41 41 41 42 43 43 43 42 41 40 41 42
43 44 43 44 43 43 45 43 44 45 46 45 45 46 46 47 46 47 47 47 48 50 50 50 51 51 51 51 52 53 52 49 49 47 48 47 47 47 46 46 47 45 45 45 43 44 44 46 46 45 44 45 43 43 41 41 40 39 38 40 39 37 36 38 41 40 38 38 39 39 41 41 41 40 40 39 40 41 41 40 40 40 40 40 41
45 43 43 42 43 44 44 44 44 44 45 44 44 45 45 45 46 47 48 48 48 49 49 51 51 50 52 51 51 53 54 49 51 47 46 47 47 46 46 47 46 47 45 45 44 43 44 45 42 43 43 42 41 41 41 40 39 39 40 39 37 35 34 36 38 36 36 37 39 39 41 41 40 40 39 38 37 40 41 40 39 41 41 40 40